Location: Lesa
(45.8333°N, 8.5667°E)
Time: 21:48:51
(UTC+00:00)

Daily predictions for brighter satellites

Satellite Brightness Start Highest point End
(mag) Time Altitude Azimuth Time Altitude Azimuth Time Altitude Azimuth
ATLAS 2AS CENTAUR R/B 3.8 16:03:26 10° WSW 16:11:08 48° NW 16:18:48 10° NNE
Meteor 1-27 Rocket 4.2 16:07:16 10° SSE 16:12:40 43° E 16:18:11 10° NNE
SMAP 3.4 16:13:07 10° SE 16:17:29 43° ENE 16:21:54 10° N
Nadezhda 4 Rocket 4.3 16:12:34 10° SSE 16:18:34 48° E 16:24:35 10° NNE
YAOGAN 1 4.4 16:19:41 10° ENE 16:20:55 11° ENE 16:22:10 10° NE
H-2A R/B 3.2 16:19:08 10° SE 16:22:32 36° ENE 16:25:57 10° N
AQUARIUS 4.4 16:21:59 10° SE 16:26:16 46° ENE 16:30:35 10° N
ALOS 3.6 16:23:14 10° S 16:27:42 45° W 16:32:11 10° NNW
RESURS DK-1 3.1 16:26:25 10° SW 16:30:27 53° WNW 16:34:32 10° NNE
Cosmos 1733 Rocket 3.0 16:26:05 10° N 16:30:29 83° E 16:34:54 10° S
COSMOS 2428 3.3 16:27:41 10° SW 16:33:15 57° WNW 16:38:54 10° NNE
STARLINK-52 4.2 16:32:30 10° SSW 16:35:40 32° SE 16:38:18 13° ENE
Cosmos 1900 4.2 16:30:52 10° NNW 16:35:47 76° NE 16:40:38 10° SE
Genesis I 3.8 16:35:11 10° NNW 16:38:47 34° NE 16:42:20 10° ESE
Meteor 1-5 Rocket 4.3 16:33:49 10° NNW 16:39:21 77° W 16:44:42 10° S
USA 215 3.4 16:33:37 10° NE 16:40:10 75° NNW 16:46:41 10° WSW
ISS -2.2 16:37:49 10° WNW 16:40:58 38° SW 16:44:07 10° SSE
Feng Yun 1-1 Rocket 4.1 16:36:34 10° SSE 16:41:56 76° ENE 16:47:21 10° NNW
Cosmos 292 Rocket 3.9 16:37:57 10° NNW 16:42:44 52° ENE 16:47:27 10° SE
STARLINK-29 3.8 16:40:26 10° SSW 16:43:47 42° SE 16:46:13 17° ENE
Cosmos 1666 3.0 16:41:54 10° N 16:45:29 42° ENE 16:49:02 10° SSE
Cosmos 1536 2.7 16:43:35 10° N 16:47:37 71° E 16:51:35 10° SSE
Cosmos 921 Rocket 3.7 16:44:18 10° N 16:48:09 31° ENE 16:52:00 10° SE
NOSS 0 Rocket 4.1 16:45:07 10° SSW 16:51:21 82° WNW 16:57:38 10° NNE
STARLINK-60 3.0 16:48:17 10° SW 16:51:39 75° SE 16:53:48 21° ENE
NOAA 12 4.1 16:50:19 10° SSE 16:55:32 63° ENE 17:00:46 10° N
Lacrosse 5 rocket 2.3 16:53:54 10° WSW 16:57:57 40° NNW 17:00:53 16° NE
Cosmos 2251 Rocket 3.9 16:52:57 10° SSW 16:58:14 67° WNW 17:03:31 10° NNE
Cosmos 2278 Rocket 2.9 16:52:45 10° NNW 16:58:18 58° WSW 17:03:49 10° S
BREEZE-M R/B 3.3 16:52:35 10° WNW 16:58:19 50° N 17:00:15 23° ENE
COBE Rocket 3.7 16:55:43 10° NNE 17:00:24 86° ESE 17:05:07 10° SSW
Cosmos 2360 Rocket 4.5 16:57:32 10° W 17:01:05 17° NW 17:04:39 10° N
SKYMED 2 4.3 16:59:20 15° NE 17:02:23 33° E 17:06:19 10° SSE
Cosmos 1782 Rocket 3.9 16:58:23 10° N 17:02:31 40° ENE 17:06:35 10° SE
SL-4 R/B 2.8 17:01:47 10° WNW 17:05:18 36° N 17:07:13 22° NE
Envisat 2.9 17:01:01 10° SSE 17:06:02 66° ENE 17:11:05 10° N
FengYun 1-2 T 4.3 17:00:55 10° SE 17:06:10 50° ENE 17:11:30 10° N
Aureole 1 Rocket 2.1 17:04:12 10° S 17:07:08 63° ESE 17:08:48 25° NNE
Okean 2 Rocket 4.4 17:04:33 10° NNE 17:13:21 - SE 17:06:56 20° NE
Sich 1 Rocket 4.1 17:04:27 10° N 17:08:32 36° ENE 17:12:34 10° SE
Okean 1 4.1 17:05:07 10° SSE 17:08:38 31° E 17:09:47 26° ENE
Cosmos 1140 Rocket 4.3 17:05:21 10° SSE 17:09:41 28° E 17:11:21 23° ENE
Cosmos 2369 Rocket 3.3 17:05:59 10° N 17:10:22 23° NE 17:11:13 22° ENE
Cosmos 1862 Rocket 4.5 17:06:12 10° SSW 17:10:26 50° WNW 17:14:44 10° N
Cosmos 1627 Rocket 4.5 17:05:36 10° S 17:11:33 58° E 17:17:34 10° NNE
CZ-4 R/B 1.8 17:08:08 10° SE 17:11:43 36° ENE 17:15:16 10° N
Cosmos 1703 Rocket 3.5 17:09:13 10° S 17:13:38 65° E 17:18:06 10° NNE
SL-16 R/B 2.4 17:08:32 10° S 17:13:59 50° ESE 17:17:45 20° NE
Cosmos 1743 3.1 17:10:29 10° N 17:14:08 39° ENE 17:17:46 10° SSE
USA 267 3.6 17:08:00 10° SE 17:14:30 68° SW 17:21:03 10° NW
Cosmos 407 Rocket 3.8 17:10:29 10° S 17:15:24 46° ESE 17:18:34 21° NE
Cosmos 2195 Rocket 4.4 17:11:22 10° S 17:17:32 71° E 17:23:48 10° NNE
YAOGAN 6 2.5 17:16:08 10° SSE 17:19:35 56° ENE 17:23:07 10° N
Cosmos 2237 Rocket 2.8 17:18:14 10° SW 17:23:50 57° WNW 17:29:20 11° NNE
Cosmos 2333 Rocket 4.0 17:20:26 10° WSW 17:25:12 26° NW 17:30:00 10° N
BREEZE-M DEB (TANK) 2.3 17:22:02 10° WNW 17:26:33 59° SSW 17:27:32 32° SE
Cosmos 1092 Rocket 4.1 17:20:58 10° S 17:27:16 84° W 17:33:34 10° N
Cosmos 2242 Rocket 4.4 17:22:58 10° SSW 17:27:27 54° WNW 17:31:57 10° N
Shenzhou-11 Module 3.7 17:26:45 10° WSW 17:29:03 24° SSW 17:29:54 20° S
Meteor 1-19 Rocket 4.4 17:29:53 10° SSE 17:35:03 43° E 17:36:58 32° NE
Cosmos 2219 Rocket 4.2 17:31:13 10° W 17:35:34 22° NW 17:39:56 10° N
Cosmos 1867 3.6 17:33:06 10° NNW 17:38:32 59° NE 17:41:04 30° ESE
Okean-O 3.4 17:35:13 10° S 17:39:32 52° W 17:43:53 10° NNW
BREEZE-M DEB (TANK) 1.8 17:36:59 10° W 17:41:05 82° SSW 17:41:21 71° ESE
USA 116 4.4 17:38:51 24° NNE 17:41:56 58° E 17:46:53 10° S
Cosmos 1943 Rocket 2.5 17:39:27 10° NNW 17:44:49 42° NE 17:45:18 41° ENE
FALCON 9 DEB 3.5 17:42:59 10° WSW 17:46:26 57° NNW 17:46:30 57° NNW
COSMO-SKYMED 1 2.6 17:47:53 24° N 17:50:30 78° WNW 17:54:51 10° SSW
Meteor 2-13 Rocket 4.4 17:47:57 10° SSE 17:53:47 54° E 17:56:08 35° NE
CSL-04 Rocket 3.5 17:48:44 10° SSE 17:54:00 81° ENE 17:59:19 10° NNW
YAOGAN 1 2.4 17:52:00 10° SSE 17:56:19 90° E 18:00:41 10° NNW
SeaSat 1 4.4 17:59:06 16° N 17:59:06 16° N 18:00:24 10° N
Okean 1-7 3.8 17:52:35 10° SSW 17:56:50 52° WNW 18:00:20 15° N
CZ-4C R/B 3.9 17:53:51 10° SSE 17:54:43 14° SSE 17:54:43 14° SSE
S3M 3.8 17:53:59 10° N 18:00:11 66° E 18:06:16 10° SSE
Cosmos 2297 4.3 17:57:54 10° NNW 18:03:29 56° WSW 18:08:58 10° S
DMSP B5D1-3 4.5 18:09:32 64° SE 18:09:32 64° SE 18:14:14 10° S
Cosmos 2266 Rocket 4.2 18:03:11 10° SSE 18:08:29 48° ESE 18:08:29 48° ESE
Cosmos 1190 Rocket 4.1 18:04:37 10° SSW 18:09:48 71° WNW 18:11:37 40° N
CSL-04 Debris 4.3 18:06:21 10° S 18:11:47 72° WSW 18:17:14 10° NNW
Cosmos 676 Rocket 3.8 18:06:44 10° SSW 18:11:47 75° ESE 18:11:47 75° ESE
Cosmos 1553 Rocket 4.1 18:06:15 10° N 18:12:38 79° W 18:19:02 10° S
Cosmos 1954 Rocket 3.9 18:15:01 10° SSW 18:19:42 73° S 18:19:42 73° S
USA 215 4.1 18:20:48 32° NNE 18:22:39 38° NNW 18:28:35 10° W
Lacrosse 5 3.7 18:30:04 10° SSW 18:31:51 20° S 18:31:51 20° S
Lacrosse 5 rocket 3.8 18:35:10 10° NW 18:36:32 15° NW 18:36:32 15° NW
SL-4 R/B 4.4 18:41:42 10° WNW 18:42:50 18° NW 18:42:50 18° NW
CZ-4 R/B 4.0 18:44:06 10° SW 18:46:52 19° W 18:49:38 10° NW
Cosmos 2369 Rocket 3.1 18:49:20 10° NNW 18:53:04 43° NW 18:53:04 43° NW
SL-16 R/B 3.7 18:53:23 10° WSW 18:58:21 30° NW 18:59:41 27° NNW
NOSS 3-1 (C) 4.0 18:57:08 10° NW 19:03:58 76° NNW 19:03:58 76° NNW
USA 229 DEB 4.1 19:06:34 10° NW 19:12:26 62° NW 19:12:26 62° NW
USA 229 4.1 19:06:41 10° NW 19:12:29 61° NW 19:12:29 61° NW
NOSS 3-1 (A) 4.5 19:11:53 10° NW 19:17:06 50° NNW 19:17:06 50° NNW
Cosmos 1943 Rocket 3.9 19:23:28 10° NW 19:26:54 28° WNW 19:26:54 28° WNW
Cosmos 2344 4.3 19:20:37 10° NW 19:30:26 88° SW 19:31:31 78° SSE
